Vertical_Velocity
-0 -0 0 1 -2 -1 -5 -2 4 -1 2 -4 4 -0 3 -1 1 2 -2 5 4 -0
1 -2 0 0 -5 -5 -1 -1 -4 -3 -0 -1 -3 2 5 1 -2 3 3 2 5 0
6 6 -5 0 -3 -8 -4 -5 1 2 1 4 -2 -2 5 2 -5 2 -0 1 5 6
6 0 1 0 3 3 3 1 -3 -1 5 7 3 4 2 -0 6 -3 2 2 3 -1
-9 -8 1 -2 -4 -6 -5 -4 -9 4 15 4 4 0 -0 1 5 -0 -2 8 -0 -1
-5 2 -3 -1 -1 -1 1 -2 11 0 24 27 7 11 8 13 11 3 3 12 7 2
-2 -7 -1 -1 -3 -1 0 -1 4 17 10 -0 -3 3 -1 -2 -1 -1 -5 0 2 -1
-1 -2 -2 -5 -5 -3 -2 -2 -2 -7 -4 -1 8 13 8 11 2 1 -3 5 3 -3
-3 -1 -3 -5 -5 -1 -1 -4 -4 -1 0 1 0 -1 1 -0 2 1 -1 -1 2 3
0 -4 -2 1 -0 -2 -4 -3 -1 -1 -5 1 -0 2 2 5 5 5 4 0 1 2
-1 -3 -3 -6 -1 1 -0 1 -1 2 0 -0 -3 1 2 2 7 -2 0 -1 -1 -0
-3 -4 -3 2 2 6 6 5 4 -8 -6 -4 -6 -4 -1 2 -7 0 3 1 0 0
-2 -2 -3 -6 -4 4 2 10 -1 3 7 2 -4 -5 4 -4 -5 -0 7 -3 -2 0
3 -2 -0 1 2 -0 -0 -3 6 8 5 3 4 13 4 -2 -3 -5 -8 -6 2 1
Height
2995 2993 2993 2992 2991 2991 2991 2993 2997 3000 3003 3006 3011 3017 3021 3026 3032 3039 3046 3051 3057 3061
2987 2984 2983 2983 2981 2980 2980 2981 2983 2986 2990 2995 3000 3005 3010 3014 3021 3027 3032 3039 3044 3049
2975 2974 2973 2972 2971 2970 2968 2967 2967 2970 2977 2983 2990 2995 3000 3005 3010 3015 3021 3027 3032 3038
2963 2964 2964 2964 2962 2959 2956 2955 2954 2958 2966 2974 2980 2987 2992 2997 3002 3006 3011 3017 3022 3028
2949 2954 2956 2956 2954 2950 2948 2949 2950 2954 2960 2967 2972 2979 2985 2990 2994 2999 3003 3008 3013 3018
2938 2944 2950 2950 2948 2946 2944 2945 2948 2950 2948 2961 2968 2973 2979 2983 2987 2992 2996 3001 3005 3010
2938 2944 2947 2948 2947 2945 2943 2943 2946 2951 2955 2960 2965 2970 2975 2979 2982 2985 2990 2994 2997 3002
2945 2946 2946 2946 2946 2946 2944 2944 2947 2949 2952 2957 2961 2965 2970 2973 2976 2979 2983 2986 2990 2995
2947 2947 2947 2946 2945 2945 2945 2946 2947 2948 2950 2952 2955 2959 2963 2966 2970 2973 2976 2979 2982 2985
2951 2947 2945 2946 2945 2945 2946 2946 2946 2948 2949 2949 2951 2954 2957 2960 2963 2966 2969 2971 2974 2977
2956 2952 2950 2947 2944 2944 2944 2943 2944 2944 2945 2945 2945 2947 2950 2954 2956 2958 2961 2964 2968 2970
2960 2956 2953 2948 2944 2940 2938 2936 2936 2937 2936 2935 2936 2938 2941 2944 2945 2949 2953 2956 2960 2963
2962 2958 2955 2952 2948 2943 2940 2934 2931 2928 2926 2925 2927 2930 2931 2934 2940 2943 2947 2951 2952 2956
2964 2960 2956 2952 2949 2947 2943 2940 2935 2931 2929 2928 2927 2928 2929 2929 2932 2938 2941 2943 2945 2948